TimeCDT,TemperatureF,Dew PointF,Humidity,Sea Level PressureIn,VisibilityMPH,Wind Direction,Wind SpeedMPH,Gust SpeedMPH,PrecipitationIn,Events,Conditions,WindDirDegrees,DateUTC
12:14 AM,61.9,58.6,89,29.81,10.0,WNW,4.6,-,N/A,,Clear,290,2013-08-07 05:14:00
12:34 AM,61.9,58.8,90,29.82,10.0,WNW,3.5,-,N/A,,Clear,290,2013-08-07 05:34:00
12:54 AM,61.3,58.5,90,29.83,10.0,WNW,4.6,-,N/A,,Clear,290,2013-08-07 05:54:00
1:14 AM,61.3,58.5,90,29.83,10.0,NW,5.8,-,N/A,,Clear,310,2013-08-07 06:14:00
1:34 AM,62.1,59.2,90,29.83,10.0,NW,5.8,-,N/A,,Clear,310,2013-08-07 06:34:00
1:54 AM,62.1,59.2,90,29.84,10.0,NW,5.8,-,N/A,,Clear,310,2013-08-07 06:54:00
2:14 AM,62.1,59.2,90,29.84,10.0,NW,6.9,-,N/A,,Clear,320,2013-08-07 07:14:00
2:34 AM,62.1,59.2,90,29.84,10.0,NW,4.6,-,N/A,,Clear,310,2013-08-07 07:34:00
2:54 AM,62.1,59.2,90,29.84,10.0,WNW,4.6,-,N/A,,Clear,300,2013-08-07 07:54:00
3:14 AM,61.0,58.3,91,29.84,7.0,NW,5.8,-,N/A,,Clear,320,2013-08-07 08:14:00
3:34 AM,60.8,58.1,91,29.85,7.0,NW,6.9,-,N/A,,Clear,320,2013-08-07 08:34:00
3:54 AM,60.4,58.1,92,29.86,7.0,NW,4.6,-,N/A,,Clear,310,2013-08-07 08:54:00
4:14 AM,60.3,57.6,91,29.87,10.0,NNW,5.8,-,N/A,,Clear,330,2013-08-07 09:14:00
4:34 AM,60.3,57.4,90,29.87,10.0,NW,6.9,-,N/A,,Clear,320,2013-08-07 09:34:00
4:54 AM,60.3,57.4,90,29.87,10.0,NW,5.8,-,N/A,,Clear,320,2013-08-07 09:54:00
5:15 AM,60.3,57.4,90,29.87,10.0,NW,5.8,-,N/A,,Clear,320,2013-08-07 10:15:00
5:34 AM,59.7,57.0,91,29.88,10.0,NW,5.8,-,N/A,,Clear,320,2013-08-07 10:34:00
5:54 AM,59.4,56.5,90,29.89,10.0,NNW,8.1,-,N/A,,Clear,330,2013-08-07 10:54:00
6:15 AM,59.9,56.3,88,29.90,10.0,NNW,10.4,-,N/A,,Mostly Cloudy,330,2013-08-07 11:15:00
6:34 AM,60.1,56.3,87,29.91,10.0,North,4.6,-,N/A,,Overcast,350,2013-08-07 11:34:00
6:54 AM,59.4,55.4,87,29.92,10.0,North,8.1,-,N/A,,Overcast,360,2013-08-07 11:54:00
7:15 AM,59.4,54.9,85,29.94,10.0,NNW,6.9,-,N/A,,Mostly Cloudy,330,2013-08-07 12:15:00
7:34 AM,59.4,54.7,84,29.94,10.0,NNW,8.1,-,N/A,,Scattered Clouds,340,2013-08-07 12:34:00
7:54 AM,60.3,55.2,83,29.95,10.0,NW,6.9,-,N/A,,Clear,320,2013-08-07 12:54:00
8:15 AM,60.6,54.9,81,29.95,10.0,NNW,8.1,-,N/A,,Clear,340,2013-08-07 13:15:00
8:34 AM,62.1,55.4,79,29.96,10.0,NNW,10.4,-,N/A,,Scattered Clouds,340,2013-08-07 13:34:00
8:54 AM,62.2,54.7,76,29.97,10.0,NNW,6.9,-,N/A,,Scattered Clouds,340,2013-08-07 13:54:00
9:14 AM,62.8,54.3,74,29.97,10.0,North,6.9,-,N/A,,Clear,350,2013-08-07 14:14:00
9:34 AM,63.7,53.1,68,29.97,10.0,North,5.8,-,N/A,,Clear,360,2013-08-07 14:34:00
9:54 AM,64.4,52.7,66,29.99,10.0,NNW,9.2,-,N/A,,Clear,340,2013-08-07 14:54:00
10:14 AM,65.5,51.8,61,29.99,10.0,NNW,8.1,-,N/A,,Clear,340,2013-08-07 15:14:00
10:34 AM,65.5,50.9,59,30.00,10.0,North,6.9,-,N/A,,Clear,350,2013-08-07 15:34:00
10:54 AM,65.5,49.6,57,30.00,10.0,North,8.1,-,N/A,,Clear,360,2013-08-07 15:54:00
11:14 AM,67.3,48.9,52,30.00,10.0,North,4.6,-,N/A,,Clear,350,2013-08-07 16:14:00
11:34 AM,67.8,48.4,50,30.01,10.0,NNW,8.1,-,N/A,,Clear,340,2013-08-07 16:34:00
11:54 AM,68.0,47.8,48,30.01,10.0,North,9.2,-,N/A,,Clear,350,2013-08-07 16:54:00
12:14 PM,69.3,48.2,47,30.01,10.0,NNE,4.6,-,N/A,,Clear,20,2013-08-07 17:14:00
12:34 PM,70.2,48.9,47,30.01,10.0,North,10.4,-,N/A,,Clear,350,2013-08-07 17:34:00
12:54 PM,70.3,49.6,48,30.01,10.0,NNW,8.1,-,N/A,,Clear,330,2013-08-07 17:54:00
1:14 PM,70.9,50.0,48,30.01,10.0,North,5.8,-,N/A,,Clear,350,2013-08-07 18:14:00
1:34 PM,70.9,49.5,47,30.01,10.0,NNE,4.6,-,N/A,,Clear,30,2013-08-07 18:34:00
1:54 PM,71.4,47.7,43,30.01,10.0,WNW,8.1,-,N/A,,Clear,300,2013-08-07 18:54:00
2:14 PM,72.1,48.7,43,30.01,10.0,NNE,5.8,-,N/A,,Clear,20,2013-08-07 19:14:00
2:34 PM,72.5,49.1,44,30.01,10.0,NNW,5.8,-,N/A,,Clear,340,2013-08-07 19:34:00
2:54 PM,72.5,48.9,43,30.01,10.0,WNW,6.9,-,N/A,,Clear,290,2013-08-07 19:54:00
3:14 PM,72.5,48.0,42,30.01,10.0,WNW,6.9,-,N/A,,Clear,290,2013-08-07 20:14:00
3:34 PM,73.0,45.9,38,30.01,10.0,NNW,6.9,-,N/A,,Clear,330,2013-08-07 20:34:00
3:54 PM,72.5,46.4,39,30.01,10.0,NNE,4.6,-,N/A,,Clear,20,2013-08-07 20:54:00
4:14 PM,73.2,47.5,40,30.00,10.0,Calm,Calm,-,N/A,,Scattered Clouds,0,2013-08-07 21:14:00
4:34 PM,72.9,48.0,41,30.00,10.0,NNW,5.8,-,N/A,,Scattered Clouds,340,2013-08-07 21:34:00
4:54 PM,73.9,48.4,40,30.00,10.0,NNW,5.8,-,N/A,,Clear,330,2013-08-07 21:54:00
5:14 PM,73.8,48.2,40,30.00,10.0,NW,6.9,-,N/A,,Clear,320,2013-08-07 22:14:00
5:34 PM,74.3,48.0,39,30.00,10.0,NW,6.9,-,N/A,,Clear,310,2013-08-07 22:34:00
5:54 PM,73.6,47.7,40,30.00,10.0,WNW,6.9,-,N/A,,Clear,300,2013-08-07 22:54:00
6:14 PM,73.4,47.7,40,30.00,10.0,NW,6.9,-,N/A,,Clear,310,2013-08-07 23:14:00
6:34 PM,73.0,46.8,39,29.99,10.0,NNW,4.6,-,N/A,,Clear,330,2013-08-07 23:34:00
6:54 PM,73.2,46.4,38,29.99,10.0,NW,6.9,-,N/A,,Clear,310,2013-08-07 23:54:00
7:14 PM,72.5,47.5,41,30.00,10.0,NNW,4.6,-,N/A,,Clear,330,2013-08-08 00:14:00
7:34 PM,71.6,47.7,43,30.00,10.0,NW,3.5,-,N/A,,Clear,320,2013-08-08 00:34:00
7:54 PM,70.7,47.5,44,30.00,10.0,Calm,Calm,-,N/A,,Scattered Clouds,0,2013-08-08 00:54:00
8:14 PM,70.7,48.2,45,30.01,10.0,Calm,Calm,-,N/A,,Scattered Clouds,0,2013-08-08 01:14:00
8:34 PM,68.4,51.4,55,30.01,10.0,Calm,Calm,-,N/A,,Clear,0,2013-08-08 01:34:00
8:55 PM,66.2,54.3,65,30.01,10.0,Calm,Calm,-,N/A,,Clear,0,2013-08-08 01:55:00
9:14 PM,63.7,53.4,69,30.02,10.0,Calm,Calm,-,N/A,,Clear,0,2013-08-08 02:14:00
9:34 PM,63.7,53.4,69,30.03,10.0,Calm,Calm,-,N/A,,Clear,0,2013-08-08 02:34:00
9:55 PM,62.1,55.4,79,30.04,10.0,Calm,Calm,-,N/A,,Clear,0,2013-08-08 02:55:00
10:14 PM,60.4,54.5,81,30.04,10.0,Calm,Calm,-,N/A,,Clear,0,2013-08-08 03:14:00
10:34 PM,60.3,54.5,81,30.04,10.0,Calm,Calm,-,N/A,,Scattered Clouds,0,2013-08-08 03:34:00
10:54 PM,60.1,54.3,81,30.04,10.0,NE,3.5,-,N/A,,Clear,50,2013-08-08 03:54:00
11:14 PM,59.4,54.1,83,30.04,10.0,Calm,Calm,-,N/A,,Clear,0,2013-08-08 04:14:00
11:34 PM,58.8,53.6,83,30.04,10.0,Calm,Calm,-,N/A,,Clear,0,2013-08-08 04:34:00
11:54 PM,58.6,53.2,82,30.04,10.0,Calm,Calm,-,N/A,,Clear,0,2013-08-08 04:54:00